COSMOS 2414

Last updated on Sat Sep 05 2026 00:03:35 GMT+0000 (Coordinated Universal Time)

1 28521U 05002A 26247.54854196 .00000044 00000+0 22839-4 0 9993 2 28521 82.9541 343.6160 0041523 102.8317 257.7490 13.87933203 94825
UTC large
Height (km)
Speed (km/s)
/
Latitude / Longitude
Inclination (degrees)
Orbital Period (minutes)
Azimuth
Elevation
Range (km)
Doppler Factor

Next 0 passes for location: London (51.5072 / 0.1276)

No passes found over London.
COSMOS 2414